Lid_Strength_Index
-1 -1 -1 -1 -0 0 0 0 0 1 1 1 2 2 2 2 2 6 9 4 0 -2 0 3 3 3 4 5 4 5 11 13 11 11 10 8 9 8 8 7 6 5 6 4 2
-2 -2 -1 -1 -2 -1 -0 -1 -1 -0 1 2 2 3 3 3 6 8 5 1 -0 -0 3 4 5 4 8 7 6 8 11 10 8 8 8 9 9 9 8 8 7 6 4 4 3
-1 -1 -2 -2 -1 -2 -1 -1 -1 -1 -1 1 2 3 3 3 12 13 1 -1 -1 1 3 4 4 5 8 7 7 8 11 9 8 7 7 8 9 7 9 9 8 6 5 4 4
-1 -2 -2 -2 -1 -1 -2 -1 -0 0 -0 1 2 1 2 5 18 7 2 0 -1 3 4 6 5 7 9 10 8 10 8 8 7 7 8 8 7 8 9 8 7 6 4 4 4
-2 -1 -1 -2 -2 -1 -1 -2 -2 -1 -0 -1 0 0 4 9 10 4 1 1 3 4 6 7 7 7 10 9 9 10 9 7 8 8 8 8 8 8 7 6 6 4 4 4 4
-2 -2 -1 -1 -2 -2 -1 -1 -2 -2 -1 -0 -1 -1 6 15 7 4 3 1 2 4 5 5 6 6 8 8 10 9 9 9 8 8 8 9 9 8 7 7 7 7 5 4 4
-2 -1 -2 -1 -2 -2 -1 -1 -1 -2 -1 -1 -0 2 7 11 4 5 4 2 1 2 5 4 4 6 6 9 7 8 10 9 9 8 9 8 11 9 7 7 7 7 7 6 4
-2 -2 -1 -2 -1 -2 -2 -2 -1 -1 -2 -1 -0 6 10 6 4 6 5 2 1 1 2 2 3 5 6 6 8 10 11 13 10 8 8 9 14 10 8 8 8 8 8 8 8
-2 -2 -2 -2 -2 -1 -2 -2 -2 -1 -1 -1 3 7 9 2 6 5 5 4 3 3 2 1 3 7 7 10 12 11 15 14 12 8 9 10 13 9 8 9 9 9 9 8 8
-1 -2 -2 -2 -2 -2 -1 -1 -1 -1 -0 1 2 6 6 8 5 5 4 2 4 4 6 6 7 10 10 11 17 15 15 13 13 11 11 12 13 10 9 10 10 10 9 8 8
-2 -1 -2 -2 -2 -2 -1 2 4 5 3 6 6 7 6 5 4 5 4 4 4 6 11 9 12 14 12 11 11 11 13 14 12 10 12 12 13 12 10 11 10 10 10 9 8
-2 -1 -2 -2 -2 -2 -0 4 4 4 8 4 4 6 5 4 7 6 2 7 8 11 9 11 13 11 10 10 11 12 14 14 11 10 12 13 13 11 9 10 9 9 8 9 8
-1 -1 -1 -1 -2 -0 2 3 1 2 8 7 5 6 6 6 8 7 4 6 10 11 11 13 13 9 10 12 12 12 13 13 13 11 12 14 16 14 12 11 10 9 8 8 9
-2 -1 -1 -1 1 1 3 2 1 2 12 11 8 6 5 6 9 5 4 6 10 11 11 12 10 10 11 12 11 15 11 11 12 14 17 13 20 16 13 13 12 10 11 10 10
-2 -1 -2 -1 2 4 2 1 2 3 19 10 8 4 6 8 9 8 5 7 10 11 10 13 12 11 12 12 10 13 10 11 12 14 15 16 17 17 15 14 12 11 11 11 11
-2 -2 -2 0 2 2 0 0 3 13 19 12 8 9 9 8 9 8 8 7 8 11 11 12 10 11 10 10 9 9 11 11 12 14 19 17 17 19 16 14 13 12 11 10 11
-1 -1 -0 -0 4 0 0 4 13 17 11 13 12 10 10 11 10 10 10 11 13 15 15 13 12 11 10 11 10 10 13 18 20 19 21 17 18 17 14 13 13 12 11 11 10
-1 -1 -0 0 1 -0 2 10 17 14 13 10 10 10 12 10 10 10 11 13 12 15 16 17 18 12 10 11 13 12 13 19 24 22 21 17 19 17 13 12 11 11 11 11 10
-1 1 1 0 -0 0 7 15 15 12 11 11 10 13 13 11 11 11 12 12 11 13 16 17 17 12 11 10 10 13 15 13 17 19 20 19 18 15 13 13 13 12 12 11 11
2 3 3 -0 -0 3 9 13 12 10 10 10 14 12 15 13 13 12 12 10 11 10 11 13 16 13 11 10 10 12 11 16 15 23 24 21 19 18 15 14 13 12 12 12 12
3 7 2 -0 1 7 13 12 11 9 9 11 13 13 12 13 12 13 13 11 9 9 9 11 13 14 12 13 13 13 14 13 13 16 20 23 20 16 14 13 13 12 12 12 11
4 10 2 1 9 9 11 10 9 9 9 10 11 12 11 11 12 13 13 11 8 8 12 10 13 16 14 12 10 10 12 13 17 19 17 18 18 14 13 13 12 11 11 11 9
8 7 2 3 12 11 9 10 9 10 10 10 11 10 11 11 13 12 12 9 8 9 11 9 13 17 16 13 13 13 12 11 12 14 17 19 18 13 13 12 11 11 10 11 10
7 10 7 6 7 10 11 11 11 9 9 9 10 10 11 12 11 12 12 10 8 8 7 7 12 14 16 15 12 14 13 11 13 16 15 15 16 13 13 12 11 10 10 10 10
9 10 11 11 10 9 10 11 11 12 10 9 11 10 11 13 12 12 10 11 10 7 8 9 14 13 12 12 12 12 13 12 13 13 15 13 13 12 10 10 10 9 9 9 9
9 10 8 9 8 10 10 12 11 10 10 11 11 11 11 12 11 12 11 11 11 10 10 10 15 14 18 12 12 14 13 12 12 12 12 12 12 9 8 10 10 9 9 9 8
9 7 7 8 9 10 12 12 10 9 10 9 9 10 11 10 9 10 9 9 9 10 11 11 12 14 16 13 14 16 13 12 12 11 11 14 11 8 9 10 9 9 9 9 9